,,PA_Meas_PMT16A,,PR_Meas_QMR101_102,,RH_Meas_QMH101,,SR_Meas_QMS101,,TA_Meas_QMH101,,GenWind,,GenWind,
time,status,PA,status,PR,status,RH,status,SR,status,TA,status,DirAvg,status,SpdAvg,
2009-10-25, 00:00:05,VALID,918.645,VALID,0.2,VALID,97.5264,VALID,0,VALID,19.8768,VALID,14,VALID,0.683594,
2009-10-25, 00:01:05,VALID,918.643,VALID,0,VALID,97.4959,VALID,0,VALID,19.8768,VALID,14,VALID,0.80625,
2009-10-25, 00:02:05,VALID,918.651,VALID,0,VALID,97.5111,VALID,0,VALID,19.8768,VALID,14,VALID,0.321094,
2009-10-25, 00:03:05,VALID,918.663,VALID,0,VALID,97.5111,VALID,0,VALID,19.8768,VALID,14,VALID,0.520703,
2009-10-25, 00:04:05,VALID,918.627,VALID,0.2,VALID,97.5035,VALID,0,VALID,19.8558,VALID,14,VALID,0.935938,
2009-10-25, 00:05:05,VALID,918.63,VALID,0,VALID,97.5035,VALID,0,VALID,19.8573,VALID,14,VALID,0.712891,
2009-10-25, 00:06:05,VALID,918.613,VALID,0,VALID,97.5187,VALID,0,VALID,19.8378,VALID,14,VALID,0.836328,
2009-10-25, 00:07:05,VALID,918.607,VALID,0.2,VALID,97.5187,VALID,0,VALID,19.8363,VALID,14,VALID,0.505859,
2009-10-25, 00:08:05,VALID,918.58,VALID,0,VALID,97.5264,VALID,0,VALID,19.8378,VALID,14,VALID,0.890625,
2009-10-25, 00:09:05,VALID,918.596,VALID,0,VALID,97.5035,VALID,0,VALID,19.8393,VALID,15,VALID,0.707812,
2009-10-25, 00:10:05,VALID,918.547,VALID,0.2,VALID,97.5416,VALID,0,VALID,19.8183,VALID,15,VALID,0.525781,
2009-10-25, 00:11:05,VALID,918.56,VALID,0,VALID,97.5416,VALID,0,VALID,19.8183,VALID,15,VALID,0.475781,
2009-10-25, 00:12:05,VALID,918.554,VALID,0,VALID,97.534,VALID,0,VALID,19.8183,VALID,15,VALID,0.650391,
2009-10-25, 00:13:05,VALID,918.552,VALID,0,VALID,97.5569,VALID,0,VALID,19.8378,VALID,15,VALID,0.364844,
2009-10-25, 00:14:05,VALID,918.57,VALID,0.2,VALID,97.5569,VALID,0,VALID,19.8183,VALID,15,VALID,0.751562,
2009-10-25, 00:15:05,VALID,918.573,VALID,0,VALID,97.5416,VALID,0,VALID,19.8378,VALID,15,VALID,0.2875,
2009-10-25, 00:16:05,VALID,918.551,VALID,0,VALID,97.5569,VALID,0,VALID,19.8183,VALID,15,VALID,0.504297,
2009-10-25, 00:17:05,VALID,918.551,VALID,0,VALID,97.5416,VALID,0,VALID,19.8378,VALID,16,VALID,0.317187,
2009-10-25, 00:18:05,VALID,918.538,VALID,0,VALID,97.5797,VALID,0,VALID,19.8573,VALID,16,VALID,0.0382813,
2009-10-25, 00:19:05,VALID,918.513,VALID,0.2,VALID,97.5569,VALID,0,VALID,19.8573,VALID,16,VALID,0.19375,
2009-10-25, 00:20:05,VALID,918.537,VALID,0,VALID,97.5569,VALID,0,VALID,19.8183,VALID,16,VALID,0.312891,
2009-10-25, 00:21:05,VALID,918.541,VALID,0,VALID,97.5569,VALID,0,VALID,19.8378,VALID,16,VALID,0.651953,
2009-10-25, 00:22:05,VALID,918.524,VALID,0.2,VALID,97.5492,VALID,0,VALID,19.7988,VALID,16,VALID,0.911719,
2009-10-25, 00:23:05,VALID,918.534,VALID,0,VALID,97.5416,VALID,0,VALID,19.7793,VALID,16,VALID,0.832812,
2009-10-25, 00:24:05,VALID,918.487,VALID,0,VALID,97.5492,VALID,0,VALID,19.7583,VALID,16,VALID,1.0168,
2009-10-25, 00:25:05,VALID,918.512,VALID,0,VALID,97.5492,VALID,0.107441,VALID,19.7583,VALID,17,VALID,1.00664,
2009-10-25, 00:26:05,VALID,918.494,VALID,0.2,VALID,97.5492,VALID,0,VALID,19.7793,VALID,17,VALID,0.854297,
2009-10-25, 00:27:05,VALID,918.492,VALID,0,VALID,97.5797,VALID,0,VALID,19.7583,VALID,104,VALID,1.19844,
2009-10-25, 00:28:05,VALID,918.473,VALID,0,VALID,97.6026,VALID,0,VALID,19.7793,VALID,153,VALID,0.85,
2009-10-25, 00:29:05,VALID,918.475,VALID,0,VALID,97.5721,VALID,0,VALID,19.7793,VALID,153,VALID,0.889063,
2009-10-25, 00:30:05,VALID,918.46,VALID,0.2,VALID,97.5721,VALID,0,VALID,19.7793,VALID,125,VALID,1.08516,
2009-10-25, 00:31:05,VALID,918.448,VALID,0,VALID,97.5873,VALID,0,VALID,19.7778,VALID,121,VALID,1.00742,
2009-10-25, 00:32:05,VALID,918.456,VALID,0,VALID,97.5645,VALID,0,VALID,19.7583,VALID,120,VALID,0.907031,
2009-10-25, 00:33:05,VALID,918.432,VALID,0,VALID,97.5797,VALID,0,VALID,19.7778,VALID,120,VALID,0.952344,
2009-10-25, 00:34:05,VALID,918.422,VALID,0.2,VALID,97.5721,VALID,0.107441,VALID,19.7778,VALID,120,VALID,1.13359,
2009-10-25, 00:35:05,VALID,918.409,VALID,0,VALID,97.595,VALID,0,VALID,19.7583,VALID,120,VALID,1.1543,
2009-10-25, 00:36:05,VALID,918.38,VALID,0,VALID,97.595,VALID,0.107441,VALID,19.7583,VALID,120,VALID,1.11016,
2009-10-25, 00:37:05,VALID,918.391,VALID,0,VALID,97.595,VALID,0,VALID,19.7583,VALID,120,VALID,0.832422,
2009-10-25, 00:38:05,VALID,918.422,VALID,0,VALID,97.6026,VALID,0,VALID,19.7388,VALID,115,VALID,1.11016,
2009-10-25, 00:39:05,VALID,918.383,VALID,0,VALID,97.595,VALID,0.107441,VALID,19.7988,VALID,115,VALID,1.03164,
2009-10-25, 00:40:05,VALID,918.393,VALID,0,VALID,97.6102,VALID,0,VALID,19.7778,VALID,115,VALID,1.10234,
2009-10-25, 00:41:05,VALID,918.385,VALID,0,VALID,97.595,VALID,0,VALID,19.7778,VALID,115,VALID,1.28633,
2009-10-25, 00:42:05,VALID,918.386,VALID,0.2,VALID,97.6178,VALID,0.107441,VALID,19.7778,VALID,115,VALID,1.09648,
2009-10-25, 00:43:05,VALID,918.388,VALID,0,VALID,97.6026,VALID,0.107441,VALID,19.7778,VALID,114,VALID,1.07578,
2009-10-25, 00:44:05,VALID,918.354,VALID,0,VALID,97.6178,VALID,0,VALID,19.7988,VALID,114,VALID,0.617188,
2009-10-25, 00:45:05,VALID,918.356,VALID,0,VALID,97.6178,VALID,0,VALID,19.8183,VALID,114,VALID,1.00781,
2009-10-25, 00:46:05,VALID,918.333,VALID,0.2,VALID,97.6102,VALID,0.107441,VALID,19.7973,VALID,114,VALID,0.770703,
2009-10-25, 00:47:05,VALID,918.304,VALID,0,VALID,97.6102,VALID,0,VALID,19.7973,VALID,114,VALID,1.24844,
2009-10-25, 00:48:05,VALID,918.304,VALID,0,VALID,97.6026,VALID,0,VALID,19.8168,VALID,114,VALID,1.14766,
2009-10-25, 00:49:05,VALID,918.307,VALID,0,VALID,97.6102,VALID,0,VALID,19.7778,VALID,112,VALID,1.13789,
2009-10-25, 00:50:05,VALID,918.275,VALID,0.2,VALID,97.595,VALID,0,VALID,19.7778,VALID,151,VALID,1.11094,
2009-10-25, 00:51:05,VALID,918.241,VALID,0,VALID,97.5721,VALID,0,VALID,19.7778,VALID,134,VALID,0.960156,
2009-10-25, 00:52:05,VALID,918.212,VALID,0,VALID,97.5797,VALID,0,VALID,19.7793,VALID,133,VALID,1.2168,
2009-10-25, 00:53:05,VALID,918.221,VALID,0,VALID,97.5797,VALID,0,VALID,19.7793,VALID,133,VALID,0.596484,
2009-10-25, 00:54:05,VALID,918.174,VALID,0.2,VALID,97.595,VALID,0,VALID,19.7793,VALID,134,VALID,0.367969,
2009-10-25, 00:55:05,VALID,918.201,VALID,0,VALID,97.6026,VALID,0.107441,VALID,19.7988,VALID,134,VALID,0.572656,
2009-10-25, 00:56:05,VALID,918.166,VALID,0,VALID,97.6026,VALID,0,VALID,19.7988,VALID,133,VALID,0.610937,
2009-10-25, 00:57:05,VALID,918.141,VALID,0,VALID,97.595,VALID,0,VALID,19.7778,VALID,133,VALID,0.646094,
2009-10-25, 00:58:05,VALID,918.107,VALID,0,VALID,97.6102,VALID,0.107441,VALID,19.7778,VALID,133,VALID,0.428516,
2009-10-25, 00:59:05,VALID,918.106,VALID,0.2,VALID,97.595,VALID,0,VALID,19.7793,VALID,127,VALID,0.920313,
2009-10-25, 01:00:05,VALID,918.117,VALID,0,VALID,97.5721,VALID,0,VALID,19.7598,VALID,126,VALID,0.694141,
2009-10-25, 01:01:05,VALID,918.101,VALID,0,VALID,97.5873,VALID,0,VALID,19.7388,VALID,126,VALID,0.691797,
2009-10-25, 01:02:05,VALID,918.08,VALID,0,VALID,97.595,VALID,0,VALID,19.7388,VALID,126,VALID,1.03516,
2009-10-25, 01:03:05,VALID,918.074,VALID,0,VALID,97.5873,VALID,0.107441,VALID,19.7193,VALID,126,VALID,0.560156,
2009-10-25, 01:04:05,VALID,918.072,VALID,0.2,VALID,97.6026,VALID,0,VALID,19.7403,VALID,126,VALID,0,
2009-10-25, 01:05:05,VALID,918.041,VALID,0,VALID,97.595,VALID,0,VALID,19.7388,VALID,126,VALID,0.459375,
2009-10-25, 01:06:05,VALID,918.017,VALID,0,VALID,97.5873,VALID,0,VALID,19.6998,VALID,126,VALID,0.198437,
2009-10-25, 01:07:05,VALID,918.022,VALID,0,VALID,97.6102,VALID,0.107441,VALID,19.7193,VALID,126,VALID,0.391016,
2009-10-25, 01:08:05,VALID,918.012,VALID,0,VALID,97.5645,VALID,0,VALID,19.6803,VALID,126,VALID,0.0367187,
2009-10-25, 01:09:05,VALID,918,VALID,0.2,VALID,97.595,VALID,0,VALID,19.6998,VALID,126,VALID,0.0445312,
2009-10-25, 01:10:05,VALID,917.989,VALID,0,VALID,97.6178,VALID,0.107441,VALID,19.7208,VALID,126,VALID,0.308984,
2009-10-25, 01:11:05,VALID,917.955,VALID,0,VALID,97.6255,VALID,0.107441,VALID,19.7193,VALID,125,VALID,0.379687,
2009-10-25, 01:12:05,VALID,917.957,VALID,0,VALID,97.5111,VALID,0.107441,VALID,19.6218,VALID,119,VALID,0.366016,
2009-10-25, 01:13:05,VALID,917.924,VALID,0.2,VALID,97.534,VALID,0,VALID,19.6023,VALID,119,VALID,0.277344,
2009-10-25, 01:14:05,VALID,917.894,VALID,0,VALID,97.5645,VALID,0,VALID,19.6023,VALID,119,VALID,0.386719,
2009-10-25, 01:15:05,VALID,917.879,VALID,0,VALID,97.534,VALID,0,VALID,19.6038,VALID,119,VALID,0.393359,
2009-10-25, 01:16:05,VALID,917.881,VALID,0,VALID,97.5797,VALID,0,VALID,19.5648,VALID,119,VALID,0.0523437,
2009-10-25, 01:17:05,VALID,917.837,VALID,0,VALID,97.6026,VALID,0,VALID,19.5843,VALID,119,VALID,0.264844,
2009-10-25, 01:18:05,VALID,917.838,VALID,0.2,VALID,97.6331,VALID,0,VALID,19.5828,VALID,119,VALID,0.117969,
2009-10-25, 01:19:05,VALID,917.833,VALID,0,VALID,97.5797,VALID,0,VALID,19.5843,VALID,119,VALID,0.295703,
2009-10-25, 01:20:05,VALID,917.802,VALID,0,VALID,97.6026,VALID,0,VALID,19.5843,VALID,119,VALID,0.427734,
2009-10-25, 01:21:05,VALID,917.767,VALID,0,VALID,97.6255,VALID,0,VALID,19.5633,VALID,119,VALID,0.460547,
2009-10-25, 01:22:05,VALID,917.771,VALID,0,VALID,97.6026,VALID,0,VALID,19.6038,VALID,119,VALID,0.386328,
2009-10-25, 01:23:05,VALID,917.76,VALID,0,VALID,97.6026,VALID,0,VALID,19.6038,VALID,119,VALID,0,
2009-10-25, 01:24:05,VALID,917.746,VALID,0.2,VALID,97.6331,VALID,0,VALID,19.6218,VALID,119,VALID,0,
2009-10-25, 01:25:05,VALID,917.717,VALID,0,VALID,97.656,VALID,0.107441,VALID,19.6008,VALID,119,VALID,0,
2009-10-25, 01:26:05,VALID,917.665,VALID,0,VALID,97.6407,VALID,0.107441,VALID,19.6203,VALID,119,VALID,0,
2009-10-25, 01:27:04,VALID,917.693,VALID,0,VALID,97.6483,VALID,0.107441,VALID,19.6413,VALID,119,VALID,0,
2009-10-25, 01:28:04,VALID,917.674,VALID,0,VALID,97.6407,VALID,0.107441,VALID,19.6218,VALID,119,VALID,0,
2009-10-25, 01:29:04,VALID,917.672,VALID,0,VALID,97.6331,VALID,0,VALID,19.6218,VALID,119,VALID,0,
2009-10-25, 01:30:04,VALID,917.67,VALID,0,VALID,97.6255,VALID,0.107441,VALID,19.6218,VALID,119,VALID,0,
2009-10-25, 01:31:04,VALID,917.657,VALID,0,VALID,97.6331,VALID,0.107441,VALID,19.6008,VALID,119,VALID,0,
2009-10-25, 01:32:04,VALID,917.635,VALID,0,VALID,97.5569,VALID,0.107441,VALID,19.6023,VALID,119,VALID,0.427734,
2009-10-25, 01:33:04,VALID,917.636,VALID,0,VALID,97.5721,VALID,0.107441,VALID,19.5633,VALID,119,VALID,0.568359,
2009-10-25, 01:34:04,VALID,917.643,VALID,0.2,VALID,97.6026,VALID,0.107441,VALID,19.5438,VALID,119,VALID,0.600781,
2009-10-25, 01:35:04,VALID,917.601,VALID,0,VALID,97.5797,VALID,0.107441,VALID,19.5438,VALID,119,VALID,0.432031,
2009-10-25, 01:36:04,VALID,917.605,VALID,0,VALID,97.6178,VALID,0,VALID,19.5228,VALID,119,VALID,0.123828,
2009-10-25, 01:37:04,VALID,917.556,VALID,0,VALID,97.6255,VALID,0.107441,VALID,19.5438,VALID,119,VALID,0,
2009-10-25, 01:38:04,VALID,917.54,VALID,0,VALID,97.656,VALID,0.107441,VALID,19.5438,VALID,119,VALID,0,
2009-10-25, 01:39:04,VALID,917.503,VALID,0,VALID,97.6941,VALID,0,VALID,19.5648,VALID,119,VALID,0.109766,
2009-10-25, 01:40:04,VALID,917.478,VALID,0,VALID,97.6483,VALID,0,VALID,19.5453,VALID,119,VALID,0.667578,
2009-10-25, 01:41:04,VALID,917.478,VALID,0,VALID,97.6102,VALID,0,VALID,19.5258,VALID,119,VALID,0.855078,
2009-10-25, 01:42:04,VALID,917.414,VALID,0,VALID,97.5569,VALID,0,VALID,19.4673,VALID,119,VALID,0.683203,
2009-10-25, 01:43:04,VALID,917.405,VALID,0,VALID,97.5721,VALID,0,VALID,19.4283,VALID,119,VALID,0.761719,
2009-10-25, 01:44:04,VALID,917.351,VALID,0,VALID,97.6026,VALID,0,VALID,19.4088,VALID,119,VALID,0.773828,
2009-10-25, 01:45:04,VALID,917.34,VALID,0,VALID,97.6255,VALID,0,VALID,19.4088,VALID,119,VALID,0.937891,
2009-10-25, 01:46:04,VALID,917.33,VALID,0,VALID,97.534,VALID,0,VALID,19.3698,VALID,118,VALID,1.16914,
2009-10-25, 01:47:04,VALID,917.289,VALID,0,VALID,97.6331,VALID,0,VALID,19.3503,VALID,93,VALID,1.18828,
2009-10-25, 01:48:04,VALID,917.261,VALID,0,VALID,97.5569,VALID,0,VALID,19.2918,VALID,52,VALID,1.06445,
2009-10-25, 01:49:04,VALID,917.242,VALID,0,VALID,97.4501,VALID,0,VALID,19.1944,VALID,11,VALID,1.1832,
2009-10-25, 01:50:04,VALID,917.217,VALID,0,VALID,97.4425,VALID,0,VALID,19.1359,VALID,11,VALID,1.36523,
2009-10-25, 01:51:04,VALID,917.188,VALID,0,VALID,97.5645,VALID,0,VALID,19.1164,VALID,11,VALID,0.874609,
2009-10-25, 01:52:04,VALID,917.162,VALID,0,VALID,97.5416,VALID,0,VALID,19.0969,VALID,11,VALID,0.862891,
2009-10-25, 01:53:04,VALID,917.11,VALID,0,VALID,97.5797,VALID,0,VALID,19.0969,VALID,11,VALID,0.760547,
2009-10-25, 01:54:04,VALID,917.112,VALID,0,VALID,97.595,VALID,0,VALID,19.0579,VALID,11,VALID,1.05156,
2009-10-25, 01:55:04,VALID,917.109,VALID,0,VALID,97.656,VALID,0,VALID,19.0579,VALID,11,VALID,0.929688,
2009-10-25, 01:56:04,VALID,917.068,VALID,0,VALID,97.6331,VALID,0,VALID,19.0579,VALID,11,VALID,0.880469,
2009-10-25, 01:57:04,VALID,917.058,VALID,0,VALID,97.6636,VALID,0,VALID,19.0369,VALID,11,VALID,0.352734,
2009-10-25, 01:58:04,VALID,917.02,VALID,0,VALID,97.656,VALID,0,VALID,19.0579,VALID,11,VALID,0.657031,
2009-10-25, 01:59:04,VALID,916.99,VALID,0,VALID,97.6407,VALID,0,VALID,19.0384,VALID,11,VALID,0.376563,
2009-10-25, 02:00:04,VALID,916.982,VALID,0,VALID,97.656,VALID,0,VALID,19.0384,VALID,11,VALID,0.157813,
2009-10-25, 02:01:04,VALID,917.015,VALID,0,VALID,97.6865,VALID,0,VALID,19.0579,VALID,11,VALID,0.269531,
2009-10-25, 02:02:04,VALID,917.017,VALID,0,VALID,97.6712,VALID,0,VALID,19.0384,VALID,11,VALID,0.378516,
2009-10-25, 02:03:04,VALID,916.973,VALID,0,VALID,97.6636,VALID,0,VALID,19.0189,VALID,11,VALID,0.213281,
2009-10-25, 02:04:04,VALID,916.972,VALID,0,VALID,97.6865,VALID,0,VALID,19.0189,VALID,11,VALID,0.190625,
2009-10-25, 02:05:04,VALID,916.958,VALID,0,VALID,97.7093,VALID,0,VALID,19.0384,VALID,11,VALID,0.262109,
2009-10-25, 02:06:04,VALID,916.931,VALID,0,VALID,97.6788,VALID,0,VALID,19.0189,VALID,11,VALID,0.70625,
2009-10-25, 02:07:04,VALID,916.91,VALID,0,VALID,97.7322,VALID,0,VALID,19.0384,VALID,11,VALID,0.485547,
2009-10-25, 02:08:04,VALID,916.9,VALID,0,VALID,97.6941,VALID,0,VALID,19.0189,VALID,11,VALID,0.530078,
2009-10-25, 02:09:04,VALID,916.859,VALID,0,VALID,97.6865,VALID,0,VALID,18.9994,VALID,11,VALID,0.655469,
2009-10-25, 02:10:04,VALID,916.826,VALID,0,VALID,97.6788,VALID,0,VALID,18.9994,VALID,11,VALID,0.721875,
2009-10-25, 02:11:04,VALID,916.819,VALID,0,VALID,97.656,VALID,0,VALID,18.9799,VALID,11,VALID,0.742969,
2009-10-25, 02:12:04,VALID,916.776,VALID,0,VALID,97.6636,VALID,0,VALID,18.9799,VALID,11,VALID,0.741406,
2009-10-25, 02:13:04,VALID,916.749,VALID,0,VALID,97.6941,VALID,0,VALID,18.9395,VALID,11,VALID,0.403906,
2009-10-25, 02:14:04,VALID,916.708,VALID,0,VALID,97.7169,VALID,0,VALID,18.9785,VALID,11,VALID,0.488281,
2009-10-25, 02:15:04,VALID,916.68,VALID,0,VALID,97.7093,VALID,0,VALID,18.9799,VALID,11,VALID,0.683594,
2009-10-25, 02:16:04,VALID,916.687,VALID,0,VALID,97.7169,VALID,0,VALID,18.9799,VALID,11,VALID,0.601172,
2009-10-25, 02:17:04,VALID,916.656,VALID,0,VALID,97.7398,VALID,0,VALID,18.9799,VALID,11,VALID,0.680469,
2009-10-25, 02:18:04,VALID,916.634,VALID,0,VALID,97.7169,VALID,0,VALID,19.0008,VALID,11,VALID,0.960547,
2009-10-25, 02:19:04,VALID,916.641,VALID,0,VALID,97.7551,VALID,0,VALID,18.9994,VALID,11,VALID,0.928516,
2009-10-25, 02:20:04,VALID,916.617,VALID,0,VALID,97.7474,VALID,0,VALID,18.9994,VALID,11,VALID,0.757422,
2009-10-25, 02:21:04,VALID,916.579,VALID,0,VALID,97.7322,VALID,0,VALID,18.9994,VALID,11,VALID,0.644141,
2009-10-25, 02:22:04,VALID,916.585,VALID,0,VALID,97.7398,VALID,0,VALID,18.9994,VALID,11,VALID,0.398828,
2009-10-25, 02:23:04,VALID,916.572,VALID,0,VALID,97.7551,VALID,0,VALID,19.0189,VALID,11,VALID,0.219141,
2009-10-25, 02:24:04,VALID,916.566,VALID,0,VALID,97.7246,VALID,0.107441,VALID,19.0175,VALID,11,VALID,0,
2009-10-25, 02:25:04,VALID,916.569,VALID,0,VALID,97.7474,VALID,0.107441,VALID,19.0175,VALID,11,VALID,0.245312,
2009-10-25, 02:26:04,VALID,916.576,VALID,0,VALID,97.7474,VALID,0,VALID,19.0175,VALID,11,VALID,0.314844,
2009-10-25, 02:27:04,VALID,916.556,VALID,0,VALID,97.7627,VALID,0.107441,VALID,19.0175,VALID,11,VALID,0.231641,
2009-10-25, 02:28:04,VALID,916.56,VALID,0,VALID,97.7017,VALID,0.107441,VALID,19.0369,VALID,11,VALID,0,
2009-10-25, 02:29:04,VALID,916.526,VALID,0,VALID,97.7017,VALID,0,VALID,18.998,VALID,11,VALID,0,
2009-10-25, 02:30:04,VALID,916.556,VALID,0,VALID,97.7246,VALID,0.107441,VALID,18.9785,VALID,11,VALID,0.0167969,
2009-10-25, 02:31:04,VALID,916.542,VALID,0,VALID,97.7169,VALID,0.107441,VALID,18.959,VALID,11,VALID,0,
2009-10-25, 02:32:04,VALID,916.507,VALID,0,VALID,97.7246,VALID,0.107441,VALID,18.959,VALID,11,VALID,0,
2009-10-25, 02:33:04,VALID,916.507,VALID,0,VALID,97.7474,VALID,0.107441,VALID,18.959,VALID,11,VALID,0,
2009-10-25, 02:34:04,VALID,916.511,VALID,0,VALID,97.7322,VALID,0.107441,VALID,18.9785,VALID,11,VALID,0,
2009-10-25, 02:35:04,VALID,916.531,VALID,0,VALID,97.7398,VALID,0.107441,VALID,18.9395,VALID,11,VALID,0.240234,
2009-10-25, 02:36:04,VALID,916.512,VALID,0,VALID,97.7474,VALID,0.107441,VALID,18.959,VALID,11,VALID,0.286328,
2009-10-25, 02:37:04,VALID,916.514,VALID,0,VALID,97.7398,VALID,0.107441,VALID,18.959,VALID,11,VALID,0.158203,
2009-10-25, 02:38:04,VALID,916.515,VALID,0,VALID,97.7551,VALID,0.107441,VALID,18.959,VALID,11,VALID,0.341406,
2009-10-25, 02:39:04,VALID,916.498,VALID,0,VALID,97.7703,VALID,0,VALID,18.9604,VALID,11,VALID,0.276563,
2009-10-25, 02:40:04,VALID,916.5,VALID,0,VALID,97.7627,VALID,0,VALID,18.9409,VALID,11,VALID,0.192969,
2009-10-25, 02:41:04,VALID,916.497,VALID,0,VALID,97.7856,VALID,0,VALID,18.9799,VALID,11,VALID,0,
2009-10-25, 02:42:04,VALID,916.492,VALID,0,VALID,97.7627,VALID,0,VALID,18.9799,VALID,11,VALID,0.295703,
2009-10-25, 02:43:04,VALID,916.5,VALID,0,VALID,97.7322,VALID,0,VALID,18.9604,VALID,11,VALID,0.370703,
2009-10-25, 02:44:04,VALID,916.495,VALID,0,VALID,97.7246,VALID,0,VALID,18.9409,VALID,11,VALID,0.439063,
2009-10-25, 02:45:04,VALID,916.519,VALID,0,VALID,97.7474,VALID,0,VALID,18.9409,VALID,11,VALID,0.377344,
2009-10-25, 02:46:04,VALID,916.521,VALID,0,VALID,97.7246,VALID,0,VALID,18.9409,VALID,11,VALID,0.216797,
2009-10-25, 02:47:04,VALID,916.508,VALID,0,VALID,97.7779,VALID,0,VALID,18.92,VALID,11,VALID,0,
2009-10-25, 02:48:04,VALID,916.515,VALID,0,VALID,97.7551,VALID,0,VALID,18.9409,VALID,11,VALID,0.344531,
2009-10-25, 02:49:04,VALID,916.544,VALID,0,VALID,97.7398,VALID,0,VALID,18.9214,VALID,11,VALID,0.102734,
2009-10-25, 02:50:04,VALID,916.54,VALID,0,VALID,97.7627,VALID,0,VALID,18.9019,VALID,11,VALID,0.344141,
2009-10-25, 02:51:04,VALID,916.556,VALID,0,VALID,97.7627,VALID,0,VALID,18.9229,VALID,11,VALID,0.259766,
2009-10-25, 02:52:04,VALID,916.588,VALID,0,VALID,97.7627,VALID,0,VALID,18.9214,VALID,11,VALID,0.346094,
2009-10-25, 02:53:04,VALID,916.577,VALID,0,VALID,97.7627,VALID,0,VALID,18.9019,VALID,11,VALID,0.784375,
2009-10-25, 02:54:04,VALID,916.591,VALID,0,VALID,97.7474,VALID,0,VALID,18.9019,VALID,11,VALID,0.733203,
2009-10-25, 02:55:04,VALID,916.585,VALID,0,VALID,97.7779,VALID,0,VALID,18.9019,VALID,11,VALID,0.621875,
2009-10-25, 02:56:04,VALID,916.59,VALID,0,VALID,97.7779,VALID,0,VALID,18.9019,VALID,11,VALID,0.504297,
2009-10-25, 02:57:04,VALID,916.592,VALID,0.2,VALID,97.7856,VALID,0,VALID,18.9214,VALID,11,VALID,0.234766,
2009-10-25, 02:58:04,VALID,916.598,VALID,0,VALID,97.7779,VALID,0,VALID,18.9214,VALID,11,VALID,0.16875,
2009-10-25, 02:59:04,VALID,916.615,VALID,0,VALID,97.7779,VALID,0,VALID,18.9214,VALID,11,VALID,0.342969,
2009-10-25, 03:00:04,VALID,916.662,VALID,0,VALID,97.7856,VALID,0,VALID,18.9019,VALID,11,VALID,0.451562,
2009-10-25, 03:01:04,VALID,916.683,VALID,0,VALID,97.7856,VALID,0,VALID,18.9424,VALID,11,VALID,0.107813,
2009-10-25, 03:02:04,VALID,916.705,VALID,0,VALID,97.7856,VALID,0,VALID,18.9214,VALID,11,VALID,0.384766,
2009-10-25, 03:03:04,VALID,916.731,VALID,0,VALID,97.816,VALID,0,VALID,18.9604,VALID,11,VALID,0.338672,
2009-10-25, 03:04:04,VALID,916.763,VALID,0,VALID,97.7932,VALID,0,VALID,18.9409,VALID,11,VALID,0.00703125,
2009-10-25, 03:05:04,VALID,916.791,VALID,0,VALID,97.7551,VALID,0,VALID,18.9409,VALID,11,VALID,0.55625,
2009-10-25, 03:06:04,VALID,916.806,VALID,0,VALID,97.7474,VALID,0,VALID,18.9214,VALID,11,VALID,0.603125,
2009-10-25, 03:07:04,VALID,916.825,VALID,0,VALID,97.7474,VALID,0,VALID,18.9019,VALID,11,VALID,0.788672,
2009-10-25, 03:08:04,VALID,916.817,VALID,0,VALID,97.7169,VALID,0,VALID,18.9019,VALID,11,VALID,0.657812,
2009-10-25, 03:09:04,VALID,916.832,VALID,0,VALID,97.8084,VALID,0,VALID,18.9019,VALID,11,VALID,0.358984,
2009-10-25, 03:10:04,VALID,916.821,VALID,0,VALID,97.7703,VALID,0,VALID,18.9019,VALID,11,VALID,0.336328,
2009-10-25, 03:11:04,VALID,916.844,VALID,0,VALID,97.8008,VALID,0,VALID,18.9229,VALID,11,VALID,0.398828,
2009-10-25, 03:12:04,VALID,916.859,VALID,0,VALID,97.8237,VALID,0,VALID,18.9214,VALID,11,VALID,0.448047,
2009-10-25, 03:13:04,VALID,916.854,VALID,0,VALID,97.8237,VALID,0,VALID,18.9814,VALID,11,VALID,0.381641,
2009-10-25, 03:14:04,VALID,916.891,VALID,0,VALID,97.7398,VALID,0,VALID,18.9424,VALID,11,VALID,0.306641,
2009-10-25, 03:15:04,VALID,916.872,VALID,0,VALID,97.6331,VALID,0,VALID,18.8434,VALID,11,VALID,0.617188,
2009-10-25, 03:16:04,VALID,916.879,VALID,0,VALID,97.6026,VALID,0,VALID,18.746,VALID,11,VALID,0.794531,
2009-10-25, 03:17:04,VALID,916.884,VALID,0,VALID,97.6026,VALID,0,VALID,18.6875,VALID,11,VALID,0.870703,
2009-10-25, 03:18:04,VALID,916.869,VALID,0,VALID,97.595,VALID,0,VALID,18.6095,VALID,11,VALID,0.794922,
2009-10-25, 03:19:04,VALID,916.923,VALID,0,VALID,97.6788,VALID,0,VALID,18.59,VALID,11,VALID,0.957031,
2009-10-25, 03:20:04,VALID,916.919,VALID,0,VALID,97.8008,VALID,0,VALID,18.6095,VALID,11,VALID,0.960547,
2009-10-25, 03:21:04,VALID,916.939,VALID,0,VALID,97.7474,VALID,0,VALID,18.6095,VALID,11,VALID,0.855078,
2009-10-25, 03:22:04,VALID,916.959,VALID,0,VALID,97.7551,VALID,0,VALID,18.59,VALID,11,VALID,0.668359,
2009-10-25, 03:23:04,VALID,917.012,VALID,0,VALID,97.8237,VALID,0,VALID,18.59,VALID,11,VALID,0.739453,
2009-10-25, 03:24:04,VALID,917.029,VALID,0,VALID,97.8084,VALID,0,VALID,18.6109,VALID,11,VALID,0.5875,
2009-10-25, 03:25:04,VALID,917.064,VALID,0,VALID,97.816,VALID,0,VALID,18.5705,VALID,11,VALID,0.569922,
2009-10-25, 03:26:04,VALID,917.114,VALID,0,VALID,97.8008,VALID,0,VALID,18.59,VALID,11,VALID,0.573047,
2009-10-25, 03:27:04,VALID,917.102,VALID,0,VALID,97.8313,VALID,0,VALID,18.5914,VALID,11,VALID,0.742188,
2009-10-25, 03:28:04,VALID,917.096,VALID,0,VALID,97.8465,VALID,0,VALID,18.6095,VALID,11,VALID,0.647266,
2009-10-25, 03:29:04,VALID,917.1,VALID,0,VALID,97.8313,VALID,0,VALID,18.6095,VALID,11,VALID,0.626172,
2009-10-25, 03:30:04,VALID,917.157,VALID,0,VALID,97.8694,VALID,0,VALID,18.6095,VALID,11,VALID,0.0625,
2009-10-25, 03:31:04,VALID,917.146,VALID,0,VALID,97.8465,VALID,0,VALID,18.629,VALID,11,VALID,0.0683594,
2009-10-25, 03:32:04,VALID,917.146,VALID,0,VALID,97.8847,VALID,0,VALID,18.6485,VALID,11,VALID,0.0796875,
2009-10-25, 03:33:04,VALID,917.161,VALID,0,VALID,97.8923,VALID,0,VALID,18.668,VALID,11,VALID,0,
2009-10-25, 03:34:04,VALID,917.139,VALID,0,VALID,97.877,VALID,0,VALID,18.7084,VALID,11,VALID,0,
2009-10-25, 03:35:04,VALID,917.16,VALID,0,VALID,97.877,VALID,0,VALID,18.7084,VALID,11,VALID,0,
2009-10-25, 03:36:04,VALID,917.166,VALID,0,VALID,97.8694,VALID,0,VALID,18.707,VALID,11,VALID,0,
2009-10-25, 03:37:04,VALID,917.187,VALID,0,VALID,97.8618,VALID,0,VALID,18.7265,VALID,11,VALID,0.316406,
2009-10-25, 03:38:04,VALID,917.156,VALID,0,VALID,97.8694,VALID,0,VALID,18.7669,VALID,11,VALID,0.287109,
2009-10-25, 03:39:04,VALID,917.185,VALID,0,VALID,97.8694,VALID,0,VALID,18.7251,VALID,11,VALID,0.583203,
2009-10-25, 03:40:04,VALID,917.205,VALID,0,VALID,97.8313,VALID,0,VALID,18.707,VALID,11,VALID,0.736328,
2009-10-25, 03:41:04,VALID,917.217,VALID,0,VALID,97.8389,VALID,0,VALID,18.707,VALID,11,VALID,0.682422,
2009-10-25, 03:42:04,VALID,917.23,VALID,0,VALID,97.8694,VALID,0.107441,VALID,18.7265,VALID,11,VALID,0.755469,
2009-10-25, 03:43:04,VALID,917.237,VALID,0,VALID,97.8694,VALID,0,VALID,18.7251,VALID,11,VALID,0.536719,
2009-10-25, 03:44:04,VALID,917.226,VALID,0,VALID,97.8923,VALID,0,VALID,18.7655,VALID,11,VALID,0.279297,